Погода в Новоникольске

Россия / Республика Татарстан     55°02′55″N   52°20′38″E
темп.,
°C
ветер,
м/с
пор.,
м/с
влажн.,
%
обл.,
%
осадки,
мм/ч
давл.,
гПа
погр.,
м
3 марта, ср
ср300:00−4зюз499791 0.1 999244
03:00−3зюз479795 0.2 1000277
06:00−5зюз4796100 0.1 999270
09:00−5зюз369695 0.2 1000246
12:00−3з479499 0.2 1000442
15:00−3з6891100 0.3 1001682
18:00−4сз71195100 0.5 1001611
21:00−7сз51194100 0.9 1004543
4 марта, чт
чт400:00−8зсз51094100 0.1 1004408
03:00−10зюз41096100 0.1 1004225
06:00−12юз5119592 0.0 1003246
09:00−8юз7139496 0.3 1002444
12:00−5юз81491100 0.4 999685
15:00−3юз101695100 1.1 9961008
18:00−1юз101895100 1.4 9941090
21:00−3з7158495 2.3 996623
5 марта, пт
пт500:00−5зюз6139079 0.0 998440
03:00−6зюз499390 0.0 999264
06:00−7зюз2395100 0.0 100082
09:00−5з2495100 0.5 1001282
12:00−3сз2393100 0.8 1001407
15:00−5ссз5794100 1.4 1002471
18:00−12сз4990100 0.1 1005262
21:00−17зсз349450 0.1 101040
6 марта, сб
сб600:00−19з22970 0.0 101220
03:00−19юз2210031 0.0 101420
06:00−18ююз2299100 0.0 101420
09:00−13ю2394100 0.0 1014150
12:00−8ююз2384100 0.0 1013369
15:00−7ююз128168 0.0 1011476
18:00−13ю228917 0.0 101021
21:00−16ююз129345 0.0 100920
7 марта, вс
вс700:00−16юз2295100 0.0 100920
03:00−16зюз239794 0.1 100927
06:00−15зсз379798 0.1 1010194
09:00−16зсз369599 0.2 1012284
12:00−14зюз469083 0.0 1012355
15:00−12юз589076 0.0 1011437
18:00−15ю5129275 0.0 1010339
21:00−13ю8158788 0.0 1008454